Regional Weather Roundup
Issued by NWS

Home | Current Version | Previous Version | Graphics & Text | Print | Product List | Glossary On
Versions: 1 2 3 4 5 6 7 8 9 10 11 12 13 14 15 16 17 18 19 20 21 22 23 24 25 26 27 28 29 30 31 32 33 34 35 36 37 38 39 40 41 42 43 44 45 46 47 48 49 50
000
ASUS43 KDMX 250903
RWRIA

WEATHER ROUNDUP FOR IOWA
NATIONAL WEATHER SERVICE DES MOINES IA
400 AM CDT SUN SEP 25 2016

NOTE: "FAIR" INDICATES FEW OR NO CLOUDS BELOW 12,000 FEET WITH NO
SIGNIFICANT WEATHER AND/OR OBSTRUCTIONS TO VISIBILITY.

* - THESE STATIONS ARE NOT NWS STATIONS...THUS NOT UNDER NWS
QUALITY CONTROL.  THEY ALSO DO NOT REPORT WEATHER SUCH
AS PRECIPITATION OR FOG.

IAZ001>003-012>014-020>022-031>034-043>046-251000-
   NORTHWEST IOWA

CITY           SKY/WX    TMP DP  RH WIND       PRES   REMARKS
CARROLL *      CLOUDY    68  68 100 S7        29.96S
CHEROKEE *     LGT RAIN  65  65 100 W7        29.96R
DENISON *      DRIZZLE   68  66  94 SW7       29.95R
LE MARS *      CLOUDY    61  52  72 W7        30.01R
ORANGE CITY *  CLOUDY    57  52  82 NW13      29.98R
SHELDON *      CLOUDY    61  57  88 W7        29.96R
SIOUX CITY     CLOUDY    62  53  72 NW13      30.00R
SPENCER        LGT RAIN  63  63 100 S5        29.94S
STORM LAKE *   RAIN      66  66 100 W8        29.96S
$$

IAZ055>058-069>071-079>083-090>094-251000-
   SOUTHWEST IOWA

CITY           SKY/WX    TMP DP  RH WIND       PRES   REMARKS
ATLANTIC *     CLOUDY    68  66  94 S9        29.98F
AUDUBON *      CLOUDY    68  64  88 S8        29.99S
CLARINDA *       N/A     68  68 100 MISG      30.01S
COUNCIL BLFS * LGT RAIN  66  66 100 CALM      29.98S
CRESTON *      CLOUDY    68  66  94 S9        30.01S
HARLAN  *      CLOUDY    68  68 100 S8        30.00S
LAMONI         LGT RAIN  68  68 100 SE3       29.99F
RED OAK *      CLOUDY    68  68 100 S10G17    29.98F
SHENANDOAH *   CLOUDY    68  68 100 S10       29.99S
$$

IAZ047>049-059>061-072>074-084-251000-
   CENTRAL IOWA

CITY           SKY/WX    TMP DP  RH WIND       PRES   REMARKS
AMES           LGT RAIN  68  68 100 SE5       29.94F
ANKENY *         N/A    N/A N/A N/A MISG        N/A
BOONE *        CLOUDY    68  68 100 S8        29.95S
CHARITON *       N/A     68  68 100 SE6       29.98F FOG
DES MOINES     LGT RAIN  70  69  97 S7        29.96F
GRINNELL*      CLOUDY    68  66  94 CALM      29.99F
KNOXVILLE *    CLOUDY    70  68  94 SE7       29.97F
MARSHALLTOWN   LGT RAIN  69  68  96 S8        29.97F
NEWTON *       CLOUDY    68  66  94 SE5       29.97F
PELLA *        CLOUDY    68  67  96 SE5       29.99F
PERRY *        CLOUDY    69  69 100 S9        29.97R
$$

IAZ004>006-015-016-023>025-035-036-251000-
   NORTH CENTRAL IOWA

CITY           SKY/WX    TMP DP  RH WIND       PRES   REMARKS
ALGONA *       LGT RAIN  68  66  94 S12       29.95S
CLARION *      CLOUDY    68  68 100 SE9       29.95F
ESTHERVILLE    CLOUDY    66  66 100 S10       29.93F
FORT DODGE *   CLOUDY    66  64  94 S5        29.96R
MASON CITY     LGT RAIN  68  67  96 S14       29.98S FOG
FOREST CITY *  LGT RAIN  64  64 100 S9        29.96S
WEBSTER CITY * CLOUDY    68  68 100 SE6       29.93F
IOWA FALLS *   RAIN      68  67  96 S6        29.98F
$$

IAZ007>011-017>019-026>030-037>042-050>054-066-251000-
   NORTHEAST IOWA

CITY           SKY/WX    TMP DP  RH WIND       PRES   REMARKS
CEDAR RAPIDS   CLOUDY    68  68 100 SE3       30.00F
CHARLES CITY * CLOUDY    68  68 100 SE8       29.98F FOG
CLINTON *      CLOUDY    67  65  93 SE8       30.04S
DECORAH *      CLOUDY    64  64 100 SE10G21   29.99F FOG
DUBUQUE        CLOUDY    65  63  93 SE14      30.03S FOG
MONTICELLO *   MOCLDY    66  64  94 SE9       30.01F FOG
OELWEIN *      CLOUDY    68  66  94 S7        30.02S FOG
WATERLOO       LGT RAIN  69  67  93 S7        29.98S FOG
$$

IAZ064-065-067-068-078-251000-
   EAST CENTRAL IOWA

CITY           SKY/WX    TMP DP  RH WIND       PRES   REMARKS
DAVENPORT      CLOUDY    67  65  93 SE6       30.03S FOG
IOWA CITY      PTCLDY    69  67  93 VRB5      30.02S
MUSCATINE *    PTCLDY    66  64  94 CALM      30.01F FOG
QUAD CITIES    MOCLDY    66  64  93 E6        30.02F FOG
$$

IAZ062-063-075>077-085>089-095>099-251000-
   SOUTHEAST IOWA

CITY           SKY/WX    TMP DP  RH WIND       PRES   REMARKS
BURLINGTON     CLEAR     67  67 100 S6        30.01F
FAIRFIELD *    CLOUDY    70  64  83 CALM      29.99F
FORT MADISON * CLEAR     72  66  83 S7        30.01F
KEOKUK *       CLEAR     70  66  88 SE6       30.00F
OSKALOOSA *      N/A     67  66  97 CALM      30.01S
CENTERVILLE *  MOCLDY    68  66  94 CALM      30.01F
OTTUMWA        CLOUDY    70  66  87 NE6       29.99F
WASHINGTON *     N/A    N/A N/A N/A MISG        N/A
$$

ABBREVIATIONS USED IN REMARKS
   TC - TEMPERATURES IN CELSIUS
  WCI - WIND CHILL INDEX
   HX - HEAT INDEX
  VSB - VISIBILITY
$$




USA.gov is the U.S. government's official web portal to all federal, state and local government web resources and services.